G4RHR Weather Reports


time (UTC)temp
C
wind
direction
speed
KPH
gust
KPH
rain 1hr
cm
rain 24hr
cm
rain mn
cm
humidity
%
barometer
mb
20260508020600 7 360 0.0 1.6 0.00 0.00 0.00 91 1015.4
20260508015700 7 360 0.0 1.6 0.00 0.00 0.00 92 1015.3
20260508014803 7 360 0.0 3.2 0.00 0.00 0.00 92 1015.4
20260508013902 7 360 1.6 3.2 0.00 0.00 0.00 92 1015.4
20260508013003 7 360 1.6 3.2 0.00 0.00 0.00 92 1015.4
20260508012101 7 360 1.6 3.2 0.00 0.00 0.00 92 1015.5
20260508011414 7 360 0.0 1.6 0.00 0.00 0.00 91 1015.5
20260508010300 7 360 0.0 1.6 0.00 0.00 0.00 91 1015.5
20260508005403 8 360 0.0 3.2 0.00 0.00 0.00 91 1015.6
20260508004504 8 360 0.0 3.2 0.00 0.00 0.00 91 1015.5
20260508003600 8 360 0.0 1.6 0.00 0.00 0.00 90 1015.6
20260508002701 8 360 0.0 1.6 0.00 0.00 0.00 90 1015.6
20260508001801 8 360 1.6 4.8 0.00 0.00 0.00 90 1015.7
20260508000900 8 360 1.6 3.2 0.00 0.00 0.00 90 1015.7
20260508000000 8 360 1.6 3.2 0.00 0.00 0.00 89 1015.8
20260507235315 8 360 1.6 3.2 0.00 0.00 0.00 89 1015.8
20260507234412 8 360 3.2 4.8 0.00 0.00 0.00 90 1015.8
20260507233515 8 360 1.6 3.2 0.00 0.00 0.00 89 1016.0
20260507232400 8 360 0.0 1.6 0.00 0.00 0.00 88 1016.0
20260507231500 9 0 0.0 0.0 0.00 0.00 0.00 87 1016.0
20260507230601 9 0 0.0 0.0 0.00 0.00 0.00 87 1016.0
20260507225914 9 360 0.0 1.6 0.00 0.00 0.00 86 1016.0
20260507224801 10 360 0.0 3.2 0.00 0.00 0.00 86 1016.0
20260507223905 10 360 0.0 1.6 0.00 0.00 0.00 86 1016.2
20260507223216 10 360 0.0 3.2 0.00 0.00 0.00 86 1016.2
20260507222313 10 360 0.0 1.6 0.00 0.00 0.00 85 1016.2
20260507221200 10 360 0.0 1.6 0.00 0.00 0.00 84 1016.2
20260507220301 10 360 0.0 3.2 0.00 0.00 0.00 85 1016.1
20260507215400 10 360 0.0 3.2 0.00 0.00 0.00 84 1016.2
20260507214500 10 360 0.0 3.2 0.00 0.00 0.00 84 1016.2
20260507213600 10 360 0.0 1.6 0.00 0.00 0.00 84 1016.1
20260507212700 10 360 0.0 1.6 0.00 0.00 0.00 84 1016.2
20260507211800 10 360 0.0 4.8 0.00 0.00 0.00 84 1016.2
20260507210900 11 360 1.6 4.8 0.00 0.00 0.00 84 1016.0
20260507210001 11 360 1.6 4.8 0.00 0.00 0.00 83 1016.1
20260507205101 11 7 1.6 6.4 0.00 0.00 0.00 83 1015.9
20260507204200 11 18 0.0 4.8 0.00 0.00 0.00 83 1015.9
20260507203301 11 9 0.0 4.8 0.00 0.00 0.00 83 1015.9
20260507202401 11 11 0.0 4.8 0.00 0.00 0.00 82 1015.9
20260507201711 11 7 0.0 4.8 0.00 0.00 0.00 82 1015.8
20260507200814 11 49 0.0 4.8 0.00 0.00 0.00 81 1015.7
20260507195701 11 11 0.0 3.2 0.00 0.00 0.00 81 1015.6
20260507194800 11 15 1.6 4.8 0.00 0.00 0.00 80 1015.5
20260507193900 11 12 1.6 9.7 0.00 0.00 0.00 80 1015.5
20260507193003 11 23 3.2 8.0 0.00 0.00 0.00 80 1015.4
20260507192100 11 41 4.8 9.7 0.00 0.00 0.00 79 1015.5
20260507191201 11 60 3.2 12.9 0.00 0.00 0.00 79 1015.4
20260507190300 11 19 4.8 12.9 0.00 0.00 0.00 79 1015.4
20260507185401 11 78 6.4 14.5 0.00 0.00 0.00 78 1015.5
20260507184501 11 2 6.4 14.5 0.00 0.00 0.00 77 1015.5
20260507183601 11 25 4.8 12.9 0.00 0.00 0.00 77 1015.5
20260507182701 11 18 8.0 16.1 0.00 0.00 0.00 76 1015.5
20260507181801 12 28 6.4 17.7 0.00 0.00 0.00 76 1015.4
20260507180901 12 11 8.0 16.1 0.00 0.00 0.00 76 1015.3
20260507180001 12 59 8.0 16.1 0.00 0.00 0.00 75 1015.4
20260507175100 12 91 8.0 16.1 0.00 0.00 0.00 74 1015.3
20260507174201 12 99 4.8 12.9 0.00 0.00 0.00 73 1015.3
20260507173301 12 95 6.4 14.5 0.00 0.00 0.00 73 1015.3
20260507172400 12 94 6.4 17.7 0.00 0.00 0.00 72 1015.3
20260507171500 13 94 6.4 17.7 0.00 0.00 0.00 72 1015.3
20260507170600 13 96 6.4 16.1 0.00 0.00 0.00 71 1015.3
20260507165701 13 102 4.8 12.9 0.00 0.00 0.00 71 1015.4
20260507164800 13 101 6.4 17.7 0.00 0.00 0.00 70 1015.4
20260507163901 13 97 6.4 17.7 0.00 0.00 0.00 69 1015.5
20260507163000 13 92 6.4 16.1 0.00 0.00 0.00 69 1015.6
20260507162100 13 97 8.0 17.7 0.00 0.00 0.00 67 1015.5
20260507161415 13 99 8.0 19.3 0.00 0.00 0.00 66 1015.6
20260507160303 15 98 6.4 14.5 0.00 0.00 0.00 64 1015.5
20260507155401 15 100 6.4 16.1 0.00 0.00 0.00 63 1015.6
20260507154500 15 97 9.7 20.9 0.00 0.00 0.00 64 1015.5
20260507153601 15 89 8.0 19.3 0.00 0.00 0.00 63 1015.4
20260507152701 15 107 3.2 12.9 0.00 0.00 0.00 65 1015.4
20260507151800 14 95 8.0 19.3 0.00 0.00 0.00 66 1015.4
20260507150900 14 96 9.7 24.1 0.00 0.00 0.00 64 1015.4
20260507150003 15 94 8.0 19.3 0.00 0.00 0.00 63 1015.4
20260507145103 15 97 8.0 20.9 0.00 0.00 0.00 62 1015.4
20260507144201 15 93 9.7 20.9 0.00 0.00 0.00 61 1015.4
20260507143300 16 96 8.0 20.9 0.00 0.00 0.00 60 1015.5
20260507142403 16 94 8.0 22.5 0.00 0.00 0.00 59 1015.5
20260507141500 16 97 9.7 20.9 0.00 0.00 0.00 59 1015.5
20260507140601 16 99 9.7 20.9 0.00 0.00 0.00 58 1015.5
20260507135700 16 104 6.4 17.7 0.00 0.00 0.00 58 1015.6
20260507135012 16 105 6.4 17.7 0.00 0.00 0.00 58 1015.6
20260507133901 16 100 6.4 19.3 0.00 0.00 0.00 57 1015.6
20260507133000 16 96 8.0 19.3 0.00 0.00 0.00 57 1015.7
20260507132100 16 99 9.7 20.9 0.00 0.00 0.00 56 1015.6
20260507131201 16 96 8.0 20.9 0.00 0.00 0.00 57 1015.6
20260507130514 16 95 8.0 20.9 0.00 0.00 0.00 57 1015.7
20260507125403 16 92 9.7 20.9 0.00 0.00 0.00 57 1015.7
20260507124501 16 101 8.0 19.3 0.00 0.00 0.00 56 1015.7
20260507123600 16 108 6.4 17.7 0.00 0.00 0.00 57 1015.7
20260507122701 16 108 6.4 16.1 0.00 0.00 0.00 59 1015.7
20260507121801 16 138 6.4 14.5 0.00 0.00 0.00 59 1015.7
20260507120901 16 150 6.4 16.1 0.00 0.00 0.00 59 1015.7
20260507120001 16 121 6.4 14.5 0.00 0.00 0.00 59 1015.7
20260507115100 16 99 6.4 20.9 0.00 0.00 0.00 57 1015.7
20260507114200 16 124 4.8 16.1 0.00 0.00 0.00 58 1015.7
20260507113512 16 129 4.8 14.5 0.00 0.03 0.00 60 1015.7
20260507112400 16 99 8.0 17.7 0.00 0.03 0.00 60 1015.7
20260507111506 16 96 6.4 17.7 0.00 0.03 0.00 59 1015.9
20260507110601 16 110 6.4 17.7 0.00 0.05 0.00 59 1015.9
20260507105701 16 114 6.4 16.1 0.00 0.05 0.00 61 1016.0
20260507104800 16 112 4.8 16.1 0.00 0.05 0.00 61 1016.0
20260507103901 16 146 4.8 16.1 0.00 0.05 0.00 63 1016.0
20260507103001 16 110 6.4 16.1 0.00 0.05 0.00 63 1016.0
20260507102101 15 103 4.8 14.5 0.00 0.05 0.00 66 1015.9
20260507101200 14 87 8.0 16.1 0.00 0.05 0.00 67 1015.9
20260507100301 13 86 6.4 12.9 0.00 0.05 0.00 68 1015.9
20260507095400 13 90 4.8 12.9 0.00 0.05 0.00 69 1015.9
20260507094500 13 89 3.2 11.3 0.00 0.05 0.00 70 1015.8
20260507093601 12 33 1.6 6.4 0.00 0.05 0.00 71 1015.8
20260507092910 12 32 3.2 8.0 0.00 0.05 0.00 69 1015.8
20260507091801 12 68 3.2 6.4 0.00 0.05 0.00 69 1015.8
20260507091115 13 79 1.6 6.4 0.00 0.05 0.00 70 1015.8
20260507090212 12 79 4.8 11.3 0.00 0.05 0.00 70 1015.7
20260507085101 12 81 3.2 9.7 0.00 0.05 0.00 69 1015.6
20260507084412 12 63 4.8 9.7 0.00 0.05 0.00 71 1015.6
20260507083300 12 33 3.2 8.0 0.00 0.05 0.00 69 1015.6
20260507082401 12 60 1.6 6.4 0.00 0.05 0.00 70 1015.6
20260507081501 12 76 3.2 9.7 0.00 0.05 0.00 69 1015.5
20260507080601 12 96 3.2 6.4 0.00 0.05 0.00 71 1015.5
20260507075701 12 84 4.8 11.3 0.00 0.05 0.00 71 1015.4
20260507074801 12 52 3.2 8.0 0.00 0.05 0.00 71 1015.4
20260507073901 12 55 4.8 9.7 0.00 0.05 0.00 72 1015.3
20260507073000 12 60 4.8 12.9 0.00 0.05 0.00 73 1015.2
20260507072100 11 64 6.4 11.3 0.00 0.05 0.00 75 1015.2
20260507071201 11 60 4.8 11.3 0.00 0.05 0.00 77 1015.2
20260507070300 11 38 4.8 8.0 0.00 0.05 0.00 80 1015.2
20260507065401 10 37 3.2 8.0 0.00 0.05 0.00 82 1015.2
20260507064503 10 39 3.2 8.0 0.00 0.05 0.00 85 1015.2
20260507063603 9 24 3.2 8.0 0.00 0.05 0.00 89 1015.1
20260507062700 8 32 4.8 8.0 0.00 0.05 0.00 91 1015.1
20260507061800 7 29 3.2 8.0 0.00 0.05 0.00 93 1015.1
20260507061111 7 9 1.6 4.8 0.00 0.05 0.00 93 1015.1
20260507060001 6 10 1.6 4.8 0.00 0.05 0.00 93 1015.1
20260507055100 6 2 3.2 4.8 0.00 0.05 0.00 93 1015.0
20260507054201 6 360 1.6 4.8 0.00 0.05 0.00 93 1015.0
20260507053301 5 360 1.6 3.2 0.00 0.05 0.00 93 1015.0
20260507052403 5 360 1.6 4.8 0.00 0.05 0.00 93 1014.9
20260507051500 5 360 1.6 4.8 0.00 0.05 0.00 93 1014.9
20260507050813 5 360 0.0 3.2 0.00 0.05 0.00 93 1014.8
20260507045705 5 360 0.0 3.2 0.00 0.05 0.00 92 1014.8
20260507044800 5 360 0.0 4.8 0.00 0.05 0.00 92 1014.6
20260507043900 5 360 0.0 1.6 0.00 0.05 0.00 91 1014.5
20260507043001 5 360 0.0 1.6 0.00 0.05 0.00 91 1014.5
20260507042100 5 360 0.0 3.2 0.00 0.05 0.00 91 1014.4
20260507041203 5 360 1.6 3.2 0.00 0.05 0.00 92 1014.4
20260507040300 5 360 1.6 4.8 0.00 0.05 0.00 92 1014.4
20260507035612 5 360 1.6 4.8 0.00 0.05 0.00 92 1014.4
20260507034501 5 360 1.6 6.4 0.00 0.05 0.00 92 1014.2
20260507033811 5 360 1.6 4.8 0.00 0.05 0.00 92 1014.2
20260507032701 5 360 3.2 8.0 0.00 0.05 0.00 92 1014.2
20260507031801 5 360 3.2 6.4 0.00 0.05 0.00 91 1014.2
20260507031113 5 360 3.2 6.4 0.00 0.05 0.00 91 1014.2
20260507030000 5 360 3.2 4.8 0.00 0.05 0.00 91 1014.2
20260507025101 5 360 3.2 8.0 0.00 0.05 0.00 91 1014.1
20260507024200 5 360 1.6 8.0 0.00 0.05 0.00 91 1014.1
20260507023300 6 360 3.2 4.8 0.00 0.05 0.00 91 1014.1
20260507022401 5 360 3.2 6.4 0.00 0.05 0.00 91 1014.1
20260507021500 5 360 1.6 6.4 0.00 0.05 0.00 91 1014.1
20260507020815 5 360 1.6 4.8 0.00 0.05 0.00 90 1014.0